Regional Weather Roundup
Issued by NWS

Home | Current Version | Previous Version | Graphics & Text | Print | Product List | Glossary On
Versions: 1 2 3 4 5 6 7 8 9 10 11 12 13 14 15 16 17 18 19 20 21 22 23 24 25 26 27 28 29 30 31 32 33 34 35 36 37 38 39 40 41 42 43 44 45 46 47 48 49 50
000
ASUS43 KMPX 281001
RWRMN
WEATHER ROUNDUP FOR MINNESOTA
NATIONAL WEATHER SERVICE TWIN CITIES/CHANHASSEN MN
500 AM CDT TUE APR 28 2015


NOTE: "FAIR" INDICATES FEW OR NO CLOUDS BELOW 12,000 FEET WITH NO
SIGNIFICANT WEATHER AND/OR OBSTRUCTIONS TO VISIBILITY. N/A MEANS
CURRENT SKY AND/OR WEATHER CONDITIONS ARE NOT AVAILABLE.

MNZ060>063-068>070-281100-
   Twin Cities Metro

CITY           SKY/WX    TMP DP  RH WIND       PRES   REMARKS
TWIN CITIES    MOCLDY    46  35  65 S3        30.15S
ST PAUL        CLEAR     42  34  73 CALM      30.16R
CRYSTAL        CLEAR     41  32  70 CALM      30.14R
BLAINE         CLEAR     41  34  75 CALM      30.14S
LAKEVILLE      PTCLDY    36  30  80 CALM      30.15S
EDEN PRAIRIE   CLEAR     43  29  57 SW5       30.14R
SOUTH ST PAUL  PTCLDY    42  34  73 CALM      30.15R
LAKE ELMO      FAIR      36  32  87 CALM      30.16S
$$
MNZ001>005-007-008-013>017-022>024-027-028-281100-
   Northwest Minnesota

CITY           SKY/WX    TMP DP  RH WIND       PRES   REMARKS
BEMIDJI        DRIZZLE   45  43  95 N7        30.22R
HALLOCK        FOG       37  36  93 CALM      30.27S VSB<1/4
ROSEAU         CLOUDY    45  39  81 N7        30.25S
WARROAD        CLOUDY    45  39  81 NW6       30.25S
THIEF RVR FALL CLOUDY    43  39  87 N10       30.27R
CROOKSTON      MIX PCPN  37  37 100 N8        30.28R VSB 1/4
FOSSTON        DRIZZLE   43  43 100 N10       30.24F
DETROIT LAKES  DRIZZLE   45  45 100 NE6       30.22F
MOORHEAD       CLOUDY    45  43  93 NW10      30.26R
PARK RAPIDS    LGT RAIN  50  44  80 N9        30.20R
MAHNOMEN       RAIN      44  43  97 NE8       30.23S
$$
MNZ006-009>011-018-025>026-281100-
   North Central Minnesota

CITY           SKY/WX    TMP DP  RH WIND       PRES   REMARKS
BAUDETTE       CLOUDY    43  41  93 NW12      30.23R
FLAG ISLAND    CLOUDY    43  39  87 N8        30.23F
INTL FALLS     LGT RAIN  46  44  93 NW8       30.19R
WASKISH        DRIZZLE   45  43  93 CALM      30.23R
BIG FORK       CLOUDY    48  41  76 NW5       30.19S
LONGVILLE      DRIZZLE   50  45  81 NW5       30.18R
GRAND RAPIDS   CLOUDY    48  39  71 NW9       30.17R
CRANE LAKE     CLOUDY    48  43  81 CALM      30.19R
ORR            CLOUDY    48  39  71 CALM      30.15R
COOK           CLOUDY    46  37  71 N5        30.16S
WALKER         RAIN      48  43  84 NW5       30.19S
$$
MNZ012-019>021-037-281100-
   Northeast Minnesota

CITY           SKY/WX    TMP DP  RH WIND       PRES   REMARKS
DULUTH         CLEAR     38  26  62 CALM      30.14S
ELY            PTCLDY    30  28  93 CALM      30.15S
HIBBING        CLOUDY    39  30  70 CALM      30.15R
EVELETH        PTCLDY    32  30  93 CALM      30.16R
DULUTH HARBOR  CLEAR     36  34  93 CALM      30.17R
TWO HARBORS    CLEAR     32  27  80 CALM      30.13S
SILVER BAY     CLEAR     30  27  86 CALM      30.13S
GRAND MARAIS     N/A     37  29  72 CALM      30.14S
G MARAIS ARPRT PTCLDY    34  23  64 W6        30.14S WCI  29
$$
MNZ029>031-032-039>041-046>048-054>057-064-281100-
   West Central Minnesota

CITY           SKY/WX    TMP DP  RH WIND       PRES   REMARKS
FERGUS FALLS   CLOUDY    48  43  81 N5        30.23R
WHEATON        CLOUDY    45  41  87 NW12      30.25R
MORRIS         CLOUDY    50  41  71 NW13      30.19S
ALEXANDRIA     CLOUDY    51  42  71 NW12      30.20R
ELBOW LAKE     CLOUDY    50  43  77 N8        30.20S
WADENA         DRIZZLE   50  43  76 NW7       30.20R
GLENWOOD       MOCLDY    50  43  76 NW15      30.18F
APPLETON       CLOUDY    52  41  66 N7        30.19F
BENSON         CLOUDY    50  41  71 NW9       30.20R
ORTONVILLE     CLOUDY    50  41  71 N15       30.21S
MADISON        CLOUDY    52  41  66 W9        30.21R
WILLMAR        FAIR      43  36  75 NW6       30.18S
$$
MNZ033>034-036-042>043-049>051-058-059-281100-
   Central Minnesota

CITY           SKY/WX    TMP DP  RH WIND       PRES   REMARKS
ST CLOUD       CLEAR     39  30  70 CALM      30.14S
SAUK CENTRE    CLOUDY    48  41  77 N6        30.18S
PAYNESVILLE    PTCLDY    37  30  77 CALM      30.17S
AITKIN         MOCLDY    34  28  80 CALM      30.14R
PINE RIVER     CLOUDY    52  45  76 N8        30.20R
BRAINERD       MOCLDY    51  43  74 N10       30.16R
STAPLES        CLOUDY    50  43  76 NW5       30.19R
LONG PRAIRIE   CLOUDY    50  41  71 NW9G16    30.18R
LITTLE FALLS   PTCLDY    39  32  75 CALM      30.17R
LITCHFIELD     CLEAR     50  30  46 W5        30.16S
BUFFALO        CLEAR     38  32  78 CALM      30.15S
MAPLE LAKE     CLEAR     46  32  58 N9        30.15S
$$
MNZ037-044-045-052-053-281100-
   East Central Minnesota

CITY           SKY/WX    TMP DP  RH WIND       PRES   REMARKS
PRINCETON      CLEAR     34  30  86 CALM      30.14S
MORA           CLEAR     32  28  86 CALM      30.16R
CAMBRIDGE      CLEAR     39  28  65 CALM      30.12S
RUSH CITY      PTCLDY    37  29  71 CALM      30.14S
MOOSE LAKE     CLEAR     32  32 100 CALM      30.12S
HINCKLEY       FAIR      32  27  80 CALM      30.13S
CLOQUET        CLEAR     32  27  80 CALM      30.14S
MCGREGOR       PTCLDY    36  30  80 NW6       30.15R
$$
MNZ071>073-080-081-089-090-097-098-281100-
   Southwest Minnesota

CITY           SKY/WX    TMP DP  RH WIND       PRES   REMARKS
MONTEVIDEO     MOCLDY    46  41  81 N6        30.20S
GRANITE FALLS  MOCLDY    40  35  81 W7        30.21R
CANBY          CLOUDY    49  42  79 NW9       30.22S
MARSHALL       PTCLDY    43  36  75 NW9       30.20S
REDWOOD FALLS  CLEAR     42  33  70 W7        30.18S
OLIVIA         PTCLDY    37  32  81 NW7       30.17S
PIPESTONE      CLEAR     43  37  81 NE6       30.20S
WINDOM         CLEAR     45  36  70 NW9       30.19S
WORTHINGTON    CLEAR     41  30  65 NW12      30.21R
JACKSON        CLEAR     39  27  60 NW12      30.19R
TRACY          CLEAR     46  39  77 W6        30.21S
SLAYTON        CLEAR     38  35  87 CALM      30.21S
$$
MNZ065>067-074>077-082>085-091>093-281100-
   South Central Minnesota

CITY           SKY/WX    TMP DP  RH WIND       PRES   REMARKS
MANKATO        CLEAR     45  25  45 W5        30.16S
NEW ULM        CLEAR     37  21  52 W8        30.17S
ST JAMES       CLEAR     39  25  56 W7        30.19R
FAIRMONT       CLEAR     43  27  52 W6        30.16S
GLENCOE        CLEAR     42  29  60 CALM      30.15S
FARIBAULT      PTCLDY    37  32  81 CALM      30.16S
OWATONNA       PTCLDY    37  30  75 SE3       30.16S
WASECA         PTCLDY    37  28  70 CALM      30.17S
ALBERT LEA     PTCLDY    39  30  70 CALM      30.16S
$$
MNZ078>079-086>088-094>096-281100-
   Southeast Minnesota

CITY           SKY/WX    TMP DP  RH WIND       PRES   REMARKS
ROCHESTER      PTCLDY    44  27  51 NW7       30.16S
RED WING       CLEAR     37  30  75 CALM      30.15S
STANTON        PTCLDY    33  28  81 SW3       30.14S
DODGE CENTER   PTCLDY    43  30  61 CALM      30.16S
WINONA         CLEAR     39  36  87 CALM      30.17R
AUSTIN         CLEAR     39  32  75 CALM      30.15S
PRESTON        PTCLDY    45  29  54 N3        30.16R
$$
ABBREVIATIONS USED IN REMARKS
   TC - TEMPERATURES IN CELSIUS
  WCI - WIND CHILL INDEX
   HX - HEAT INDEX
  VSB - VISIBILITY
$$


USA.gov is the U.S. government's official web portal to all federal, state and local government web resources and services.